When you browse on this site, cookies collect data to enhance your experience and personalize the content and advertising you see.
Visit our Privacy Policy to learn more. By continuing to use the site, you agree to this use of cookies and data.
  • In Deutschland
  • Länderverzeichnis
  • Für 7 Tage
  • Wassertemperatur
  • Satellitenkarten
  • Wetterkarte
  • Widgets
  • user-avatar
    Anmelden

    Stündliche Wetter Reñaca

    Heute, 19 Februar, Dienstag

    Zeit Temperatur Niederschläge Wind Luftdruck Luftfeuchtigkeit
    00:00 +18°C° 0 mm 2 m/S 751 mmHg 85%
    01:00 +18°C° 0 mm 2 m/S 751 mmHg 86%
    02:00 +18°C° 0 mm 2 m/S 751 mmHg 87%
    03:00 +18°C° 0 mm 2 m/S 750 mmHg 88%
    04:00 +18°C° 0 mm 2 m/S 750 mmHg 88%
    05:00 +19°C° 0 mm 2 m/S 750 mmHg 84%
    06:00 +21°C° 0 mm 1 m/S 750 mmHg 79%
    07:00 +20°C° 0 mm 2 m/S 751 mmHg 82%
    08:00 +23°C° 0 mm 2 m/S 751 mmHg 74%
    09:00 +24°C° 0 mm 3 m/S 751 mmHg 66%
    10:00 +26°C° 0 mm 3 m/S 751 mmHg 59%
    11:00 +26°C° 0 mm 3 m/S 751 mmHg 57%
    12:00 +27°C° 0 mm 3 m/S 751 mmHg 56%
    13:00 +27°C° 0 mm 4 m/S 751 mmHg 55%
    14:00 +27°C° 0 mm 4 m/S 751 mmHg 56%
    15:00 +26°C° 0 mm 3 m/S 751 mmHg 57%
    16:00 +26°C° 0 mm 3 m/S 751 mmHg 58%
    17:00 +24°C° 0 mm 3 m/S 751 mmHg 64%
    18:00 +22°C° 0 mm 3 m/S 751 mmHg 71%
    19:00 +20°C° 0 mm 3 m/S 751 mmHg 77%
    20:00 +20°C° 0 mm 2 m/S 751 mmHg 78%
    21:00 +20°C° 0 mm 2 m/S 751 mmHg 79%
    22:00 +20°C° 0 mm 2 m/S 751 mmHg 80%
    23:00 +20°C° 0 mm 2 m/S 751 mmHg 81%

    Morgen, 20 Februar, Mittwoch

    Zeit Temperatur Niederschläge Wind Luftdruck Luftfeuchtigkeit
    00:00 +20°C° 0 mm 2 m/S 750 mmHg 81%
    01:00 +19°C° 0 mm 2 m/S 750 mmHg 81%
    02:00 +19°C° 0 mm 2 m/S 750 mmHg 82%
    03:00 +20°C° 0 mm 1 m/S 749 mmHg 83%
    04:00 +20°C° 0 mm 1 m/S 749 mmHg 84%
    05:00 +21°C° 0 mm 1 m/S 749 mmHg 80%
    06:00 +22°C° 0 mm 1 m/S 750 mmHg 75%
    07:00 +23°C° 0 mm 1 m/S 750 mmHg 71%
    08:00 +24°C° 0 mm 2 m/S 750 mmHg 65%
    09:00 +26°C° 0 mm 3 m/S 750 mmHg 60%
    10:00 +27°C° 0 mm 3 m/S 750 mmHg 54%
    11:00 +27°C° 0 mm 4 m/S 750 mmHg 54%
    12:00 +27°C° 0 mm 4 m/S 750 mmHg 54%
    13:00 +27°C° 0 mm 5 m/S 750 mmHg 54%
    14:00 +26°C° 0 mm 4 m/S 750 mmHg 56%
    15:00 +26°C° 0 mm 4 m/S 750 mmHg 58%
    16:00 +25°C° 0 mm 4 m/S 749 mmHg 60%
    17:00 +22°C° 0 mm 3 m/S 750 mmHg 66%
    18:00 +21°C° 0 mm 2 m/S 750 mmHg 72%
    19:00 +21°C° 0 mm 1 m/S 750 mmHg 78%
    20:00 +21°C° 0 mm 1 m/S 750 mmHg 78%
    21:00 +18°C° 0 mm 0 m/S 750 mmHg 78%
    22:00 +18°C° 0 mm 0 m/S 750 mmHg 79%
    23:00 +18°C° 0 mm 0 m/S 750 mmHg 79%

    übermorgen, 21 Februar, Donnerstag

    Zeit Temperatur Niederschläge Wind Luftdruck Luftfeuchtigkeit
    00:00 +20°C° 0 mm 1 m/S 750 mmHg 80%
    01:00 +19°C° 0 mm 1 m/S 750 mmHg 81%
    02:00 +19°C° 0 mm 1 m/S 750 mmHg 82%
    03:00 +19°C° 0 mm 1 m/S 750 mmHg 84%
    04:00 +18°C° 0 mm 1 m/S 750 mmHg 85%
    05:00 +19°C° 0 mm 1 m/S 750 mmHg 80%
    06:00 +20°C° 0 mm 1 m/S 750 mmHg 75%
    07:00 +21°C° 0 mm 1 m/S 751 mmHg 70%
    08:00 +23°C° 0 mm 2 m/S 751 mmHg 66%
    09:00 +24°C° 0 mm 3 m/S 751 mmHg 61%
    10:00 +25°C° 0 mm 3 m/S 752 mmHg 57%
    11:00 +25°C° 0 mm 4 m/S 752 mmHg 57%
    12:00 +26°C° 0 mm 4 m/S 752 mmHg 56%
    13:00 +26°C° 0 mm 4 m/S 752 mmHg 56%
    14:00 +25°C° 0 mm 3 m/S 752 mmHg 56%
    15:00 +25°C° 0 mm 3 m/S 752 mmHg 57%
    16:00 +25°C° 0 mm 2 m/S 752 mmHg 57%
    17:00 +23°C° 0 mm 2 m/S 752 mmHg 64%
    18:00 +21°C° 0 mm 2 m/S 752 mmHg 70%
    19:00 +20°C° 0 mm 2 m/S 752 mmHg 76%
    20:00 +19°C° 0 mm 3 m/S 752 mmHg 79%
    21:00 +19°C° 0 mm 3 m/S 752 mmHg 81%
    22:00 +19°C° 0 mm 3 m/S 752 mmHg 83%
    23:00 +19°C° 0 mm 3 m/S 752 mmHg 83%

    22 Februar, Freitag

    Zeit Temperatur Niederschläge Wind Luftdruck Luftfeuchtigkeit
    00:00 +18°C° 0 mm 3 m/S 751 mmHg 83%
    01:00 +18°C° 0 mm 2 m/S 751 mmHg 83%
    02:00 +18°C° 0 mm 3 m/S 750 mmHg 84%
    03:00 +18°C° 0 mm 3 m/S 750 mmHg 85%
    04:00 +18°C° 0 mm 3 m/S 750 mmHg 86%
    05:00 +19°C° 0 mm 3 m/S 751 mmHg 82%
    06:00 +20°C° 0 mm 3 m/S 751 mmHg 77%
    07:00 +20°C° 0 mm 3 m/S 751 mmHg 73%
    08:00 +22°C° 0 mm 4 m/S 752 mmHg 66%
    09:00 +25°C° 0 mm 4 m/S 752 mmHg 60%
    10:00 +26°C° 0 mm 5 m/S 752 mmHg 53%
    11:00 +27°C° 0 mm 5 m/S 752 mmHg 51%
    12:00 +27°C° 0 mm 5 m/S 752 mmHg 49%
    13:00 +28°C° 0 mm 5 m/S 752 mmHg 48%
    14:00 +27°C° 0 mm 5 m/S 752 mmHg 49%
    15:00 +27°C° 0 mm 5 m/S 752 mmHg 51%
    16:00 +26°C° 0 mm 5 m/S 751 mmHg 52%
    17:00 +23°C° 0 mm 5 m/S 752 mmHg 59%
    18:00 +22°C° 0 mm 5 m/S 752 mmHg 66%
    19:00 +20°C° 0 mm 5 m/S 752 mmHg 72%
    20:00 +20°C° 0 mm 4 m/S 752 mmHg 73%
    21:00 +20°C° 0 mm 4 m/S 751 mmHg 74%
    22:00 +19°C° 0 mm 4 m/S 751 mmHg 74%
    23:00 +19°C° 0 mm 4 m/S 751 mmHg 74%

    23 Februar, Samstag

    Zeit Temperatur Niederschläge Wind Luftdruck Luftfeuchtigkeit
    00:00 +19°C° 0 mm 4 m/S 750 mmHg 73%
    01:00 +19°C° 0 mm 4 m/S 750 mmHg 73%
    02:00 +19°C° 0 mm 4 m/S 749 mmHg 73%
    03:00 +18°C° 0 mm 4 m/S 749 mmHg 73%
    04:00 +18°C° 0 mm 4 m/S 748 mmHg 73%
    05:00 +19°C° 0 mm 4 m/S 749 mmHg 68%
    06:00 +20°C° 0 mm 4 m/S 749 mmHg 64%
    07:00 +21°C° 0 mm 3 m/S 749 mmHg 60%
    08:00 +23°C° 0 mm 4 m/S 749 mmHg 53%
    09:00 +26°C° 0 mm 5 m/S 749 mmHg 47%
    10:00 +28°C° 0 mm 5 m/S 749 mmHg 40%
    11:00 +28°C° 0 mm 6 m/S 749 mmHg 39%
    12:00 +29°C° 0 mm 6 m/S 749 mmHg 37%
    13:00 +30°C° 0 mm 7 m/S 748 mmHg 36%
    14:00 +29°C° 0 mm 7 m/S 748 mmHg 37%
    15:00 +28°C° 0 mm 7 m/S 748 mmHg 37%
    16:00 +27°C° 0 mm 7 m/S 748 mmHg 38%
    17:00 +26°C° 0 mm 6 m/S 749 mmHg 44%
    18:00 +23°C° 0 mm 5 m/S 749 mmHg 50%
    19:00 +21°C° 0 mm 5 m/S 749 mmHg 56%
    20:00 +20°C° 0 mm 4 m/S 749 mmHg 58%
    21:00 +20°C° 0 mm 4 m/S 749 mmHg 61%
    22:00 +19°C° 0 mm 3 m/S 749 mmHg 63%
    23:00 +19°C° 0 mm 3 m/S 748 mmHg 63%

    24 Februar, Sonntag

    Zeit Temperatur Niederschläge Wind Luftdruck Luftfeuchtigkeit
    00:00 +19°C° 0 mm 3 m/S 748 mmHg 62%
    01:00 +19°C° 0 mm 3 m/S 747 mmHg 62%
    02:00 +19°C° 0 mm 3 m/S 747 mmHg 61%
    03:00 +18°C° 0 mm 3 m/S 747 mmHg 60%
    04:00 +18°C° 0 mm 3 m/S 747 mmHg 60%
    05:00 +20°C° 0 mm 3 m/S 747 mmHg 55%
    06:00 +21°C° 0 mm 3 m/S 747 mmHg 51%
    07:00 +22°C° 0 mm 3 m/S 748 mmHg 47%
    08:00 +23°C° 0 mm 4 m/S 748 mmHg 42%
    09:00 +26°C° 0 mm 4 m/S 748 mmHg 37%
    10:00 +28°C° 0 mm 4 m/S 748 mmHg 32%
    11:00 +28°C° 0 mm 5 m/S 748 mmHg 33%
    12:00 +28°C° 0 mm 5 m/S 748 mmHg 33%
    13:00 +28°C° 0 mm 5 m/S 748 mmHg 33%
    14:00 +27°C° 0 mm 5 m/S 748 mmHg 36%
    15:00 +26°C° 0 mm 4 m/S 748 mmHg 38%
    16:00 +25°C° 0 mm 4 m/S 748 mmHg 40%
    17:00 +22°C° 0 mm 4 m/S 748 mmHg 47%
    18:00 +21°C° 0 mm 3 m/S 748 mmHg 54%
    19:00 +19°C° 0 mm 3 m/S 749 mmHg 60%
    20:00 +18°C° 0 mm 3 m/S 749 mmHg 62%
    21:00 +18°C° 0 mm 2 m/S 749 mmHg 64%
    22:00 +18°C° 0 mm 2 m/S 749 mmHg 65%
    23:00 +17°C° 0 mm 2 m/S 748 mmHg 66%
    Mehr zeigen